| time (UTC) | temp F | wind direction | speed MPH | gust MPH | rain 1hr in | rain 24hr in | rain mn in | humidity % | barometer mb |
| 20260506171003 | 91 | 189 | 3.0 | 13.0 | 0.00 | 0.00 | 0.00 | 52 | 1017.7 |
| 20260506170512 | 91 | 215 | 5.0 | 13.0 | 0.00 | 0.00 | 0.00 | 48 | 1017.7 |
| 20260506170009 | 91 | 104 | 2.0 | 11.0 | 0.00 | 0.00 | 0.00 | 50 | 1017.8 |
| 20260506165503 | 91 | 163 | 4.0 | 11.0 | 0.00 | 0.00 | 0.00 | 52 | 1017.8 |
| 20260506165005 | 91 | 113 | 3.0 | 13.0 | 0.00 | 0.00 | 0.00 | 55 | 1018.0 |
| 20260506164512 | 90 | 215 | 4.0 | 13.0 | 0.00 | 0.00 | 0.00 | 56 | 1018.0 |
| 20260506164002 | 90 | 185 | 3.0 | 11.0 | 0.00 | 0.00 | 0.00 | 50 | 1017.9 |
| 20260506163014 | 91 | 188 | 4.0 | 10.0 | 0.00 | 0.00 | 0.00 | 52 | 1018.0 |
| 20260506162510 | 91 | 217 | 5.0 | 11.0 | 0.00 | 0.00 | 0.00 | 52 | 1018.0 |
| 20260506162006 | 90 | 236 | 5.0 | 11.0 | 0.00 | 0.00 | 0.00 | 52 | 1018.0 |
| 20260506161515 | 90 | 182 | 4.0 | 11.0 | 0.00 | 0.00 | 0.00 | 51 | 1017.9 |
| 20260506160011 | 89 | 171 | 5.0 | 14.0 | 0.00 | 0.00 | 0.00 | 56 | 1018.0 |
| 20260506155507 | 89 | 176 | 7.0 | 12.0 | 0.00 | 0.00 | 0.00 | 56 | 1017.9 |
| 20260506155007 | 89 | 128 | 0.0 | 10.0 | 0.00 | 0.00 | 0.00 | 58 | 1018.0 |
| 20260506154506 | 89 | 146 | 4.0 | 10.0 | 0.00 | 0.00 | 0.00 | 55 | 1018.0 |
| 20260506154003 | 89 | 142 | 2.0 | 10.0 | 0.00 | 0.00 | 0.00 | 57 | 1018.0 |
| 20260506153503 | 88 | 155 | 4.0 | 11.0 | 0.00 | 0.00 | 0.00 | 56 | 1018.1 |
| 20260506153015 | 88 | 153 | 5.0 | 12.0 | 0.00 | 0.00 | 0.00 | 57 | 1018.2 |
| 20260506152503 | 88 | 206 | 4.0 | 12.0 | 0.00 | 0.00 | 0.00 | 56 | 1018.2 |
| 20260506151516 | 87 | 139 | 6.0 | 13.0 | 0.00 | 0.00 | 0.00 | 60 | 1018.1 |
| 20260506151003 | 86 | 199 | 3.0 | 13.0 | 0.00 | 0.00 | 0.00 | 59 | 1018.1 |
| 20260506150505 | 86 | 160 | 4.0 | 11.0 | 0.00 | 0.00 | 0.00 | 62 | 1018.1 |
| 20260506150022 | 85 | 157 | 3.0 | 11.0 | 0.00 | 0.00 | 0.00 | 62 | 1018.1 |
| 20260506145509 | 85 | 188 | 4.0 | 10.0 | 0.00 | 0.00 | 0.00 | 63 | 1018.1 |
| 20260506145003 | 85 | 188 | 4.0 | 9.0 | 0.00 | 0.00 | 0.00 | 64 | 1018.1 |
| 20260506144535 | 85 | 163 | 3.0 | 8.0 | 0.00 | 0.00 | 0.00 | 67 | 1018.1 |
| 20260506144007 | 84 | 188 | 3.0 | 8.0 | 0.00 | 0.00 | 0.00 | 69 | 1018.3 |
| 20260506143504 | 84 | 176 | 3.0 | 7.0 | 0.00 | 0.00 | 0.00 | 70 | 1018.2 |
| 20260506143013 | 83 | 160 | 2.0 | 9.0 | 0.00 | 0.00 | 0.00 | 70 | 1018.2 |
| 20260506142505 | 83 | 205 | 5.0 | 9.0 | 0.00 | 0.00 | 0.00 | 71 | 1018.2 |
| 20260506142008 | 82 | 175 | 2.0 | 7.0 | 0.00 | 0.00 | 0.00 | 70 | 1018.3 |
| 20260506141512 | 82 | 123 | 4.0 | 9.0 | 0.00 | 0.00 | 0.00 | 72 | 1018.3 |
| 20260506141009 | 81 | 159 | 3.0 | 10.0 | 0.00 | 0.00 | 0.00 | 72 | 1018.4 |
| 20260506140028 | 80 | 190 | 2.0 | 11.0 | 0.00 | 0.00 | 0.00 | 74 | 1018.2 |
| 20260506135504 | 80 | 142 | 4.0 | 11.0 | 0.00 | 0.00 | 0.00 | 75 | 1018.2 |
| 20260506134003 | 78 | 201 | 4.0 | 11.0 | 0.00 | 0.00 | 0.00 | 80 | 1018.2 |
| 20260506133509 | 78 | 62 | 2.0 | 9.0 | 0.00 | 0.00 | 0.00 | 81 | 1018.3 |
| 20260506133020 | 77 | 164 | 4.0 | 9.0 | 0.00 | 0.00 | 0.00 | 81 | 1018.2 |
| 20260506132511 | 76 | 148 | 2.0 | 7.0 | 0.00 | 0.00 | 0.00 | 83 | 1018.1 |
| 20260506132005 | 76 | 123 | 2.0 | 7.0 | 0.00 | 0.00 | 0.00 | 85 | 1018.1 |
| 20260506131523 | 75 | 80 | 3.0 | 8.0 | 0.00 | 0.00 | 0.00 | 86 | 1018.0 |
| 20260506130503 | 73 | 156 | 2.0 | 7.0 | 0.00 | 0.00 | 0.00 | 89 | 1018.0 |
| 20260506130018 | 72 | 165 | 3.0 | 7.0 | 0.00 | 0.00 | 0.00 | 90 | 1017.9 |
| 20260506125506 | 72 | 205 | 2.0 | 9.0 | 0.00 | 0.00 | 0.00 | 91 | 1017.8 |
| 20260506125008 | 71 | 144 | 4.0 | 9.0 | 0.00 | 0.00 | 0.00 | 91 | 1017.7 |
| 20260506124515 | 70 | 130 | 2.0 | 8.0 | 0.00 | 0.00 | 0.00 | 93 | 1017.7 |
| 20260506124008 | 69 | 117 | 3.0 | 6.0 | 0.00 | 0.00 | 0.00 | 93 | 1017.7 |
| 20260506123508 | 69 | 152 | 1.0 | 5.0 | 0.00 | 0.00 | 0.00 | 94 | 1017.8 |
| 20260506123015 | 68 | 140 | 1.0 | 3.0 | 0.00 | 0.00 | 0.00 | 95 | 1017.7 |
| 20260506122507 | 67 | 148 | 1.0 | 3.0 | 0.00 | 0.00 | 0.00 | 95 | 1017.7 |
| 20260506122007 | 67 | 129 | 0.0 | 4.0 | 0.00 | 0.00 | 0.00 | 96 | 1017.7 |
| 20260506121523 | 66 | 167 | 0.0 | 4.0 | 0.00 | 0.00 | 0.00 | 96 | 1017.6 |
| 20260506120507 | 64 | 154 | 0.0 | 2.0 | 0.00 | 0.00 | 0.00 | 95 | 1017.5 |
| 20260506120023 | 64 | 85 | 0.0 | 0.0 | 0.00 | 0.00 | 0.00 | 94 | 1017.6 |
| 20260506115509 | 64 | 85 | 0.0 | 0.0 | 0.00 | 0.00 | 0.00 | 94 | 1017.5 |
| 20260506114521 | 63 | 85 | 0.0 | 0.0 | 0.00 | 0.00 | 0.00 | 94 | 1017.5 |
| 20260506114012 | 63 | 85 | 0.0 | 0.0 | 0.00 | 0.00 | 0.00 | 94 | 1017.4 |
| 20260506113507 | 62 | 85 | 0.0 | 0.0 | 0.00 | 0.00 | 0.00 | 94 | 1017.4 |
| 20260506113020 | 62 | 85 | 0.0 | 0.0 | 0.00 | 0.00 | 0.00 | 94 | 1017.2 |
| 20260506112508 | 61 | 85 | 0.0 | 0.0 | 0.00 | 0.00 | 0.00 | 94 | 1017.2 |
| 20260506112007 | 61 | 85 | 0.0 | 0.0 | 0.00 | 0.00 | 0.00 | 93 | 1017.1 |
| 20260506111518 | 61 | 85 | 0.0 | 0.0 | 0.00 | 0.00 | 0.00 | 93 | 1017.1 |
| 20260506111015 | 61 | 85 | 0.0 | 0.0 | 0.00 | 0.00 | 0.00 | 93 | 1017.1 |
| 20260506110513 | 61 | 85 | 0.0 | 0.0 | 0.00 | 0.00 | 0.00 | 93 | 1017.2 |
| 20260506110014 | 61 | 85 | 0.0 | 0.0 | 0.00 | 0.00 | 0.00 | 93 | 1017.1 |
| 20260506104524 | 61 | 85 | 0.0 | 0.0 | 0.00 | 0.00 | 0.00 | 92 | 1016.7 |
| 20260506104007 | 61 | 85 | 0.0 | 0.0 | 0.00 | 0.00 | 0.00 | 92 | 1016.7 |
| 20260506103025 | 61 | 85 | 0.0 | 0.0 | 0.00 | 0.00 | 0.00 | 92 | 1016.6 |
| 20260506102507 | 61 | 85 | 0.0 | 0.0 | 0.00 | 0.00 | 0.00 | 92 | 1016.6 |
| 20260506101529 | 61 | 85 | 0.0 | 0.0 | 0.00 | 0.00 | 0.00 | 91 | 1016.7 |
| 20260506101012 | 61 | 85 | 0.0 | 0.0 | 0.00 | 0.00 | 0.00 | 91 | 1016.7 |
| 20260506100505 | 61 | 85 | 0.0 | 0.0 | 0.00 | 0.00 | 0.00 | 91 | 1016.7 |
| 20260506100024 | 62 | 85 | 0.0 | 0.0 | 0.00 | 0.00 | 0.00 | 91 | 1016.7 |
| 20260506095510 | 62 | 85 | 0.0 | 0.0 | 0.00 | 0.00 | 0.00 | 91 | 1016.7 |
| 20260506095010 | 62 | 85 | 0.0 | 0.0 | 0.00 | 0.00 | 0.00 | 91 | 1016.6 |
| 20260506094008 | 62 | 85 | 0.0 | 0.0 | 0.00 | 0.00 | 0.00 | 91 | 1016.6 |
| 20260506093509 | 62 | 85 | 0.0 | 0.0 | 0.00 | 0.00 | 0.00 | 91 | 1016.5 |
| 20260506093030 | 62 | 85 | 0.0 | 0.0 | 0.00 | 0.00 | 0.00 | 91 | 1016.5 |
| 20260506092011 | 62 | 85 | 0.0 | 0.0 | 0.00 | 0.00 | 0.00 | 91 | 1016.4 |
| 20260506091524 | 62 | 85 | 0.0 | 0.0 | 0.00 | 0.00 | 0.00 | 91 | 1016.4 |
| 20260506091012 | 62 | 85 | 0.0 | 0.0 | 0.00 | 0.00 | 0.00 | 91 | 1016.3 |
| 20260506090513 | 62 | 85 | 0.0 | 0.0 | 0.00 | 0.00 | 0.00 | 91 | 1016.4 |
| 20260506090029 | 62 | 85 | 0.0 | 0.0 | 0.00 | 0.00 | 0.00 | 91 | 1016.3 |
| 20260506085511 | 62 | 85 | 0.0 | 0.0 | 0.00 | 0.00 | 0.00 | 91 | 1016.4 |
| 20260506085008 | 62 | 85 | 0.0 | 0.0 | 0.00 | 0.00 | 0.00 | 91 | 1016.3 |
| 20260506084536 | 62 | 85 | 0.0 | 0.0 | 0.00 | 0.00 | 0.00 | 91 | 1016.5 |
| 20260506084004 | 62 | 85 | 0.0 | 0.0 | 0.00 | 0.00 | 0.00 | 91 | 1016.5 |
| 20260506083007 | 62 | 85 | 0.0 | 0.0 | 0.00 | 0.00 | 0.00 | 91 | 1016.5 |
| 20260506082508 | 62 | 85 | 0.0 | 0.0 | 0.00 | 0.00 | 0.00 | 91 | 1016.4 |
| 20260506082009 | 62 | 85 | 0.0 | 0.0 | 0.00 | 0.00 | 0.00 | 91 | 1016.5 |
| 20260506081507 | 62 | 85 | 0.0 | 0.0 | 0.00 | 0.00 | 0.00 | 90 | 1016.7 |
| 20260506081003 | 62 | 85 | 0.0 | 0.0 | 0.00 | 0.00 | 0.00 | 90 | 1016.7 |
| 20260506080504 | 62 | 85 | 0.0 | 0.0 | 0.00 | 0.00 | 0.00 | 89 | 1016.5 |
| 20260506073504 | 62 | 85 | 0.0 | 0.0 | 0.00 | 0.00 | 0.00 | 89 | 1016.5 |
| 20260506073018 | 62 | 85 | 0.0 | 0.0 | 0.00 | 0.00 | 0.00 | 89 | 1016.6 |
| 20260506072509 | 62 | 85 | 0.0 | 0.0 | 0.00 | 0.00 | 0.00 | 89 | 1016.7 |
| 20260506072004 | 63 | 85 | 0.0 | 0.0 | 0.00 | 0.00 | 0.00 | 88 | 1016.7 |
| 20260506071517 | 63 | 85 | 0.0 | 0.0 | 0.00 | 0.00 | 0.00 | 88 | 1016.7 |
| 20260506071007 | 63 | 85 | 0.0 | 0.0 | 0.00 | 0.00 | 0.00 | 88 | 1016.8 |
| 20260506062502 | 63 | 85 | 0.0 | 0.0 | 0.00 | 0.00 | 0.00 | 88 | 1017.1 |
| 20260506062008 | 63 | 85 | 0.0 | 0.0 | 0.00 | 0.00 | 0.00 | 88 | 1017.2 |
| 20260506061518 | 63 | 85 | 0.0 | 0.0 | 0.00 | 0.00 | 0.00 | 88 | 1017.2 |
| 20260506061004 | 63 | 85 | 0.0 | 0.0 | 0.00 | 0.00 | 0.00 | 88 | 1017.2 |
| 20260506060505 | 63 | 85 | 0.0 | 0.0 | 0.00 | 0.00 | 0.00 | 88 | 1017.2 |
| 20260506051004 | 64 | 85 | 0.0 | 0.0 | 0.00 | 0.00 | 0.00 | 84 | 1017.7 |
| 20260506050510 | 64 | 85 | 0.0 | 0.0 | 0.00 | 0.00 | 0.00 | 83 | 1017.7 |
| 20260506045004 | 65 | 85 | 0.0 | 0.0 | 0.00 | 0.00 | 0.00 | 82 | 1017.7 |
| 20260506044538 | 65 | 85 | 0.0 | 0.0 | 0.00 | 0.00 | 0.00 | 81 | 1017.8 |
| 20260506044004 | 65 | 85 | 0.0 | 0.0 | 0.00 | 0.00 | 0.00 | 81 | 1017.8 |
| 20260506043508 | 66 | 85 | 0.0 | 0.0 | 0.00 | 0.00 | 0.00 | 81 | 1017.8 |
| 20260506043010 | 66 | 85 | 0.0 | 0.0 | 0.00 | 0.00 | 0.00 | 81 | 1017.7 |
| 20260506042505 | 66 | 85 | 0.0 | 0.0 | 0.00 | 0.00 | 0.00 | 80 | 1017.6 |
| 20260506041514 | 66 | 85 | 0.0 | 0.0 | 0.00 | 0.00 | 0.00 | 80 | 1017.6 |
| 20260506041007 | 66 | 85 | 0.0 | 0.0 | 0.00 | 0.00 | 0.00 | 79 | 1017.7 |
| 20260506040505 | 67 | 85 | 0.0 | 0.0 | 0.00 | 0.00 | 0.00 | 79 | 1017.6 |
| 20260506040016 | 67 | 85 | 0.0 | 0.0 | 0.00 | 0.00 | 0.00 | 79 | 1017.7 |
| 20260506035508 | 67 | 85 | 0.0 | 0.0 | 0.00 | 0.00 | 0.00 | 79 | 1017.7 |
| 20260506035009 | 67 | 85 | 0.0 | 0.0 | 0.00 | 0.00 | 0.00 | 79 | 1017.7 |
| 20260506034511 | 67 | 85 | 0.0 | 0.0 | 0.00 | 0.00 | 0.00 | 79 | 1017.7 |
| 20260506034008 | 67 | 85 | 0.0 | 0.0 | 0.00 | 0.00 | 0.00 | 78 | 1017.7 |
| 20260506033514 | 67 | 85 | 0.0 | 0.0 | 0.00 | 0.00 | 0.00 | 78 | 1017.6 |
| 20260506033010 | 67 | 85 | 0.0 | 0.0 | 0.00 | 0.00 | 0.00 | 78 | 1017.7 |
| 20260506032506 | 67 | 85 | 0.0 | 0.0 | 0.00 | 0.00 | 0.00 | 78 | 1017.9 |
| 20260506032003 | 68 | 85 | 0.0 | 0.0 | 0.00 | 0.00 | 0.00 | 77 | 1017.8 |
| 20260506031523 | 68 | 85 | 0.0 | 0.0 | 0.00 | 0.00 | 0.00 | 77 | 1017.7 |
| 20260506031006 | 68 | 85 | 0.0 | 0.0 | 0.00 | 0.00 | 0.00 | 77 | 1017.7 |
| 20260506030504 | 68 | 85 | 0.0 | 0.0 | 0.00 | 0.00 | 0.00 | 76 | 1017.6 |
| 20260506030018 | 69 | 85 | 0.0 | 0.0 | 0.00 | 0.00 | 0.00 | 75 | 1017.6 |
| 20260506025504 | 69 | 85 | 0.0 | 0.0 | 0.00 | 0.00 | 0.00 | 75 | 1017.7 |
| 20260506025008 | 69 | 85 | 0.0 | 0.0 | 0.00 | 0.00 | 0.00 | 74 | 1017.8 |
| 20260506024529 | 69 | 85 | 0.0 | 0.0 | 0.00 | 0.00 | 0.00 | 74 | 1017.6 |
| 20260506024008 | 70 | 85 | 0.0 | 0.0 | 0.00 | 0.00 | 0.00 | 73 | 1017.5 |
| 20260506023505 | 70 | 85 | 0.0 | 0.0 | 0.00 | 0.00 | 0.00 | 72 | 1017.4 |
| 20260506023020 | 70 | 85 | 0.0 | 0.0 | 0.00 | 0.00 | 0.00 | 72 | 1017.5 |
| 20260506022513 | 70 | 85 | 0.0 | 0.0 | 0.00 | 0.00 | 0.00 | 71 | 1017.6 |
| 20260506022013 | 71 | 85 | 0.0 | 0.0 | 0.00 | 0.00 | 0.00 | 71 | 1017.5 |
| 20260506021516 | 71 | 85 | 0.0 | 0.0 | 0.00 | 0.00 | 0.00 | 70 | 1017.4 |
| 20260506020503 | 72 | 85 | 0.0 | 0.0 | 0.00 | 0.00 | 0.00 | 68 | 1017.3 |
| 20260506015504 | 73 | 85 | 0.0 | 0.0 | 0.00 | 0.00 | 0.00 | 67 | 1017.2 |
| 20260506015010 | 73 | 85 | 0.0 | 1.0 | 0.00 | 0.00 | 0.00 | 67 | 1017.0 |
| 20260506014523 | 73 | 85 | 0.0 | 2.0 | 0.00 | 0.00 | 0.00 | 67 | 1017.0 |
| 20260506014005 | 73 | 85 | 0.0 | 3.0 | 0.00 | 0.00 | 0.00 | 66 | 1016.9 |
| 20260506013510 | 74 | 85 | 1.0 | 3.0 | 0.00 | 0.00 | 0.00 | 66 | 1016.8 |
| 20260506013023 | 74 | 98 | 0.0 | 4.0 | 0.00 | 0.00 | 0.00 | 66 | 1016.6 |
| 20260506012505 | 74 | 115 | 1.0 | 7.0 | 0.00 | 0.00 | 0.00 | 65 | 1016.5 |
| 20260506012010 | 74 | 75 | 2.0 | 7.0 | 0.00 | 0.00 | 0.00 | 65 | 1016.5 |
| 20260506011523 | 75 | 74 | 1.0 | 7.0 | 0.00 | 0.00 | 0.00 | 64 | 1016.4 |
| 20260506011011 | 75 | 109 | 2.0 | 7.0 | 0.00 | 0.00 | 0.00 | 64 | 1016.3 |
| 20260506010511 | 75 | 87 | 2.0 | 6.0 | 0.00 | 0.00 | 0.00 | 63 | 1016.3 |
| 20260506010045 | 75 | 81 | 1.0 | 7.0 | 0.00 | 0.00 | 0.00 | 63 | 1016.2 |
| 20260506005006 | 76 | 94 | 4.0 | 9.0 | 0.00 | 0.00 | 0.00 | 62 | 1016.0 |
| 20260506004515 | 76 | 63 | 3.0 | 9.0 | 0.00 | 0.00 | 0.00 | 61 | 1015.9 |
| 20260506004003 | 77 | 71 | 4.0 | 9.0 | 0.00 | 0.00 | 0.00 | 61 | 1016.0 |
| 20260506003502 | 77 | 121 | 3.0 | 12.0 | 0.00 | 0.00 | 0.00 | 61 | 1015.9 |
| 20260506003005 | 77 | 88 | 7.0 | 15.0 | 0.00 | 0.00 | 0.00 | 60 | 1015.8 |
| 20260506002504 | 78 | 39 | 7.0 | 15.0 | 0.00 | 0.00 | 0.00 | 61 | 1015.7 |
| 20260506001002 | 79 | 94 | 5.0 | 10.0 | 0.00 | 0.00 | 0.00 | 59 | 1015.5 |
| 20260506000505 | 79 | 73 | 5.0 | 14.0 | 0.00 | 0.00 | 0.00 | 58 | 1015.5 |
| 20260505235504 | 81 | 31 | 5.0 | 13.0 | 0.00 | 0.00 | 0.00 | 56 | 1015.3 |
| 20260505235003 | 81 | 90 | 6.0 | 12.0 | 0.00 | 0.00 | 0.00 | 55 | 1015.2 |
| 20260505234506 | 82 | 85 | 4.0 | 11.0 | 0.00 | 0.00 | 0.00 | 54 | 1015.1 |
| 20260505234004 | 82 | 75 | 2.0 | 8.0 | 0.00 | 0.00 | 0.00 | 54 | 1015.1 |
| 20260505233507 | 83 | 74 | 4.0 | 9.0 | 0.00 | 0.00 | 0.00 | 53 | 1015.0 |
| 20260505233008 | 83 | 90 | 4.0 | 9.0 | 0.00 | 0.00 | 0.00 | 52 | 1014.9 |
| 20260505232502 | 84 | 126 | 5.0 | 10.0 | 0.00 | 0.00 | 0.00 | 51 | 1015.0 |
| 20260505232005 | 84 | 148 | 4.0 | 11.0 | 0.00 | 0.00 | 0.00 | 50 | 1015.0 |
| 20260505231507 | 84 | 101 | 5.0 | 11.0 | 0.00 | 0.00 | 0.00 | 49 | 1015.0 |
| 20260505231004 | 85 | 75 | 3.0 | 7.0 | 0.00 | 0.00 | 0.00 | 49 | 1015.0 |
| 20260505230503 | 85 | 77 | 1.0 | 7.0 | 0.00 | 0.00 | 0.00 | 49 | 1015.0 |
| 20260505230024 | 85 | 102 | 2.0 | 8.0 | 0.00 | 0.00 | 0.00 | 47 | 1015.0 |
| 20260505225504 | 86 | 67 | 2.0 | 8.0 | 0.00 | 0.00 | 0.00 | 48 | 1015.1 |
| 20260505225003 | 86 | 77 | 4.0 | 7.0 | 0.00 | 0.00 | 0.00 | 47 | 1015.1 |
| 20260505224003 | 86 | 57 | 2.0 | 9.0 | 0.00 | 0.00 | 0.00 | 46 | 1015.3 |
| 20260505223503 | 87 | 85 | 4.0 | 9.0 | 0.00 | 0.00 | 0.00 | 45 | 1015.2 |
| 20260505223014 | 88 | 76 | 4.0 | 8.0 | 0.00 | 0.00 | 0.00 | 45 | 1015.2 |
| 20260505222508 | 88 | 53 | 3.0 | 10.0 | 0.00 | 0.00 | 0.00 | 45 | 1015.2 |
| 20260505222003 | 88 | 115 | 7.0 | 10.0 | 0.00 | 0.00 | 0.00 | 45 | 1015.1 |
| 20260505221507 | 88 | 53 | 3.0 | 8.0 | 0.00 | 0.00 | 0.00 | 43 | 1015.1 |
| 20260505221004 | 88 | 51 | 4.0 | 8.0 | 0.00 | 0.00 | 0.00 | 43 | 1015.1 |
| 20260505220504 | 88 | 104 | 2.0 | 8.0 | 0.00 | 0.00 | 0.00 | 45 | 1015.1 |
| 20260505220008 | 88 | 86 | 4.0 | 9.0 | 0.00 | 0.00 | 0.00 | 45 | 1015.1 |
| 20260505215504 | 88 | 107 | 3.0 | 10.0 | 0.00 | 0.00 | 0.00 | 45 | 1015.0 |
| 20260505214503 | 90 | 26 | 5.0 | 10.0 | 0.00 | 0.00 | 0.00 | 42 | 1015.1 |
| 20260505214003 | 90 | 113 | 4.0 | 10.0 | 0.00 | 0.00 | 0.00 | 43 | 1015.0 |
| 20260505213502 | 90 | 63 | 3.0 | 9.0 | 0.00 | 0.00 | 0.00 | 44 | 1015.0 |
| 20260505213021 | 89 | 71 | 3.0 | 9.0 | 0.00 | 0.00 | 0.00 | 44 | 1014.9 |
| 20260505212506 | 89 | 87 | 4.0 | 9.0 | 0.00 | 0.00 | 0.00 | 43 | 1014.9 |
| 20260505212008 | 89 | 360 | 4.0 | 9.0 | 0.00 | 0.00 | 0.00 | 41 | 1014.9 |
| 20260505211522 | 89 | 338 | 5.0 | 9.0 | 0.00 | 0.00 | 0.00 | 41 | 1014.9 |
| 20260505211003 | 89 | 18 | 2.0 | 9.0 | 0.00 | 0.00 | 0.00 | 41 | 1014.8 |
| 20260505210503 | 90 | 13 | 1.0 | 9.0 | 0.00 | 0.00 | 0.00 | 42 | 1014.9 |
| 20260505210006 | 90 | 49 | 3.0 | 10.0 | 0.00 | 0.00 | 0.00 | 41 | 1015.0 |
| 20260505205504 | 91 | 352 | 2.0 | 10.0 | 0.00 | 0.00 | 0.00 | 40 | 1014.9 |
| 20260505205007 | 91 | 86 | 3.0 | 10.0 | 0.00 | 0.00 | 0.00 | 41 | 1014.9 |
| 20260505204510 | 91 | 80 | 5.0 | 10.0 | 0.00 | 0.00 | 0.00 | 40 | 1015.0 |
| 20260505204005 | 91 | 93 | 2.0 | 11.0 | 0.00 | 0.00 | 0.00 | 40 | 1015.0 |
| 20260505203503 | 91 | 98 | 1.0 | 12.0 | 0.00 | 0.00 | 0.00 | 42 | 1015.1 |
| 20260505203023 | 90 | 45 | 2.0 | 12.0 | 0.00 | 0.00 | 0.00 | 42 | 1015.1 |
| 20260505202006 | 90 | 38 | 4.0 | 9.0 | 0.00 | 0.00 | 0.00 | 42 | 1015.1 |
| 20260505201510 | 90 | 5 | 1.0 | 9.0 | 0.00 | 0.00 | 0.00 | 44 | 1015.2 |
| 20260505201004 | 91 | 53 | 3.0 | 10.0 | 0.00 | 0.00 | 0.00 | 41 | 1015.2 |
| 20260505200508 | 92 | 39 | 4.0 | 10.0 | 0.00 | 0.00 | 0.00 | 39 | 1015.2 |
| 20260505200005 | 92 | 34 | 4.0 | 9.0 | 0.00 | 0.00 | 0.00 | 40 | 1015.2 |
| 20260505195505 | 92 | 42 | 4.0 | 12.0 | 0.00 | 0.00 | 0.00 | 40 | 1015.2 |
| 20260505195004 | 92 | 89 | 6.0 | 12.0 | 0.00 | 0.00 | 0.00 | 41 | 1015.2 |
| 20260505194508 | 92 | 36 | 5.0 | 12.0 | 0.00 | 0.00 | 0.00 | 39 | 1015.3 |
| 20260505194004 | 92 | 98 | 3.0 | 9.0 | 0.00 | 0.00 | 0.00 | 41 | 1015.3 |
| 20260505193505 | 92 | 57 | 1.0 | 10.0 | 0.00 | 0.00 | 0.00 | 39 | 1015.3 |
| 20260505193012 | 92 | 274 | 1.0 | 10.0 | 0.00 | 0.00 | 0.00 | 43 | 1015.5 |
| 20260505192509 | 92 | 52 | 4.0 | 10.0 | 0.00 | 0.00 | 0.00 | 41 | 1015.5 |
| 20260505192005 | 92 | 55 | 6.0 | 13.0 | 0.00 | 0.00 | 0.00 | 41 | 1015.7 |
| 20260505191516 | 92 | 350 | 4.0 | 13.0 | 0.00 | 0.00 | 0.00 | 41 | 1015.7 |
| 20260505191005 | 92 | 32 | 3.0 | 11.0 | 0.00 | 0.00 | 0.00 | 42 | 1015.8 |
| 20260505190507 | 91 | 335 | 4.0 | 10.0 | 0.00 | 0.00 | 0.00 | 43 | 1015.8 |
| 20260505190022 | 92 | 29 | 5.0 | 11.0 | 0.00 | 0.00 | 0.00 | 43 | 1015.9 |
| 20260505185510 | 92 | 44 | 6.0 | 11.0 | 0.00 | 0.00 | 0.00 | 47 | 1015.8 |
| 20260505185009 | 92 | 44 | 3.0 | 10.0 | 0.00 | 0.00 | 0.00 | 45 | 1015.9 |
| 20260505184510 | 91 | 28 | 4.0 | 11.0 | 0.00 | 0.00 | 0.00 | 43 | 1015.9 |
| 20260505184007 | 91 | 71 | 4.0 | 11.0 | 0.00 | 0.00 | 0.00 | 44 | 1016.0 |
| 20260505183502 | 90 | 59 | 3.0 | 9.0 | 0.00 | 0.00 | 0.00 | 43 | 1016.1 |
| 20260505182503 | 90 | 128 | 5.0 | 10.0 | 0.00 | 0.00 | 0.00 | 46 | 1016.2 |
| 20260505182004 | 89 | 78 | 4.0 | 10.0 | 0.00 | 0.00 | 0.00 | 51 | 1016.3 |
| 20260505181004 | 89 | 104 | 5.0 | 10.0 | 0.00 | 0.00 | 0.00 | 46 | 1016.6 |
| 20260505180508 | 88 | 34 | 3.0 | 12.0 | 0.00 | 0.00 | 0.00 | 49 | 1016.6 |
| 20260505180019 | 88 | 87 | 4.0 | 12.0 | 0.00 | 0.00 | 0.00 | 51 | 1016.6 |
| 20260505175504 | 87 | 136 | 6.0 | 14.0 | 0.00 | 0.00 | 0.00 | 49 | 1016.6 |
| 20260505175006 | 86 | 72 | 5.0 | 14.0 | 0.00 | 0.00 | 0.00 | 52 | 1016.7 |
| 20260505174521 | 86 | 67 | 5.0 | 12.0 | 0.00 | 0.00 | 0.00 | 51 | 1016.8 |
| 20260505174012 | 85 | 42 | 7.0 | 11.0 | 0.00 | 0.00 | 0.00 | 53 | 1016.9 |
| 20260505173503 | 84 | 99 | 3.0 | 11.0 | 0.00 | 0.00 | 0.00 | 55 | 1016.8 |
| 20260505173014 | 83 | 22 | 4.0 | 7.0 | 0.00 | 0.00 | 0.00 | 54 | 1017.0 |
| 20260505172504 | 83 | 343 | 2.0 | 10.0 | 0.00 | 0.00 | 0.00 | 54 | 1017.0 |
| 20260505172003 | 83 | 344 | 3.0 | 10.0 | 0.00 | 0.00 | 0.00 | 53 | 1017.0 |
| 20260505171511 | 83 | 85 | 6.0 | 10.0 | 0.00 | 0.00 | 0.00 | 53 | 1017.1 |